This demonstration page uses our WeatherBlox Daily Observations layout. Learn more.

Left ArrowRight Arrow

39.92423, -83.80882

Hourly Observations for March 19, 2020

Temp ( °F °C ) Dew Point ( °F °C ) Humidity (%) Winds ( mph kmh ) Pressure ( in mb ) Visibility ( mi km ) Precip ( " mm )
12:56 am 00:56 Cloudy with Light Rain 51 10.6 51 10.6 100 100 WNW 8 13 30.08 1019 3 4.82802 0.001 0.001
1:56 am 01:56 Cloudy with Mist and Fog 50 10 50 10 100 100 W 6 9 30.09 1019 5 8.0467 0.001 0.001
2:05 am 02:05 Cloudy with Mist and Fog 50 10 50 10 100 100 W 7 11 30.09 1019 5 8.0467 0 0
2:56 am 02:56 Cloudy 50 10 50 10 100 100 W 7 11 30.11 1020 9 14.48406 0 0
3:15 am 03:15 Cloudy 50 10 50 10 100 100 W 7 11 30.11 1020 10 16.0934 0 0
3:37 am 03:37 Cloudy 50 10 50 10 100 100 W 8 13 30.12 1020 9 14.48406 0 0
3:46 am 03:46 Cloudy 50 10 50 10 100 100 W 7 11 30.12 1020 8 12.87472 0 0
3:56 am 03:56 Cloudy with Mist and Fog 50 10 50 10 100 100 WNW 7 11 30.13 1020 6 9.65604 0 0
4:48 am 04:48 Cloudy with Mist and Fog 48 9 48 9 100 100 NW 7 11 30.15 1021 2.5 4.02335 0.001 0.001
4:56 am 04:56 Cloudy with Mist and Fog 48 8.9 48 8.9 100 100 NW 8 13 30.15 1021 2.5 4.02335 0.001 0.001
5:12 am 05:12 Cloudy with Mist and Fog 46 8 46 8 100 100 NW 8 13 30.16 1021 1.25 2.011675 0 0
5:28 am 05:28 Cloudy with Mist and Fog 46 8 46 8 100 100 WNW 3 6 30.16 1021 3 4.82802 0.01 0.254
5:56 am 05:56 Cloudy with Mist and Fog 46 7.8 46 7.8 100 100 NW 5 7 30.17 1022 4 6.43736 0.27 6.858
6:19 am 06:19 Cloudy with Mist and Fog 45 7 45 7 100 100 NNW 5 7 30.17 1022 2.5 4.02335 0.29 7.366
6:29 am 06:29 Cloudy with Mist and Fog 45 7 45 7 100 100 N 6 9 30.17 1022 1 1.60934 0.36 9.144
6:38 am 06:38 Cloudy with Mist and Fog 45 7 45 7 100 100 N 5 7 30.17 1022 2 3.21868 0.4 10.16
6:47 am 06:47 Cloudy with Mist and Fog 45 7 45 7 100 100 Calm 30.18 1022 3 4.82802 0.42 10.668
6:56 am 06:56 Cloudy with Mist and Fog 45 7.2 45 7.2 100 100 Calm 30.17 1022 3 4.82802 0.42 10.668
7:11 am 07:11 Cloudy with Mist and Fog 45 7 45 7 100 100 Calm 30.18 1022 1.75 2.816345 0 0
7:23 am 07:23 Mostly Cloudy with Mist and Fog 45 7 45 7 100 100 Calm 30.18 1022 1 1.60934 0 0
7:32 am 07:32 Mostly Cloudy with Mist and Fog 45 7 45 7 100 100 Calm 30.18 1022 0.75 1.207005 0.01 0.254
7:34 am 07:34 Mostly Cloudy with Fog 45 7 45 7 100 100 Calm 30.18 1022 0.25 0.402335 0.01 0.254
7:56 am 07:56 Cloudy with Fog 42 5.6 42 5.6 100 100 N 5 7 30.18 1022 N/A 0.01 0.254
8:56 am 08:56 Cloudy with Fog 44 6.7 44 6.7 100 100 NE 9 15 30.18 1022 N/A 0 0
9:24 am 09:24 Cloudy with Fog 45 7 45 7 100 100 E 7 11 30.2 1023 0.5 0.80467 0 0
9:56 am 09:56 Cloudy with Fog 45 7.2 45 7.2 100 100 ENE 13 20 30.17 1022 0.5 0.80467 0.61 15.494
10:33 am 10:33 Cloudy with Mist and Fog 45 7 45 7 100 100 E 10 17 30.17 1022 1 1.60934 1.61 40.894
10:41 am 10:41 Cloudy with Mist and Fog 46 8 46 8 100 100 E 12 19 30.17 1022 1.5 2.41401 2.25 57.15
10:48 am 10:48 Cloudy with Mist and Fog 46 8 46 8 100 100 E 9 15 30.17 1022 3 4.82802 2.78 70.612
10:56 am 10:56 Cloudy with Mist and Fog 46 7.8 46 7.8 100 100 ESE 10 17 30.17 1022 4 6.43736 3.01 76.454
11:13 am 11:13 Cloudy with Mist and Fog 46 8 46 8 100 100 ESE 8 13 30.18 1022 2.5 4.02335 1.32 33.528
11:21 am 11:21 Cloudy with Mist and Fog 48 9 48 9 100 100 ESE 9 15 30.17 1022 5 8.0467 1.35 34.29
11:56 am 11:56 Cloudy with Mist and Fog 48 8.9 48 8.9 100 100 ESE 12 19 30.16 1021 5 8.0467 1.36 34.544
12:41 pm 12:41 Cloudy with Mist and Fog 48 9 48 9 100 100 ESE 9 15 30.14 1021 2 3.21868 0.05 1.27
12:56 pm 12:56 Cloudy with Mist and Fog 50 10 50 10 100 100 ESE 10 17 30.12 1020 2.5 4.02335 0.06 1.524
1:18 pm 13:18 Cloudy with Mist and Fog 52 11 52 11 100 100 SE 9 15 30.12 1020 3 4.82802 0.01 0.254
1:26 pm 13:26 Cloudy with Mist and Fog 52 11 52 11 100 100 SE 10 17 30.12 1020 2.5 4.02335 0.01 0.254
1:44 pm 13:44 Cloudy with Mist and Fog 52 11 52 11 100 100 ESE 12 19 30.1 1019 3 4.82802 0.03 0.762
1:53 pm 13:53 Cloudy with Mist and Fog 52 11 52 11 100 100 ESE 13 20 30.09 1019 2.5 4.02335 0.03 0.762
1:56 pm 13:56 Cloudy with Mist and Fog 52 11.1 52 11.1 100 100 ESE 12 19 30.09 1019 2.5 4.02335 0.03 0.762
2:12 pm 14:12 Cloudy with Mist and Fog 52 11 52 11 100 100 SE 9 15 30.1 1019 3 4.82802 0.01 0.254
2:26 pm 14:26 Cloudy with Light Rain 52 11 52 11 100 100 SE 8 13 30.1 1019 2.5 4.02335 0.01 0.254
2:56 pm 14:56 Cloudy with Rain 52 11.1 52 11.1 100 100 ESE 8 13 30.08 1019 3 4.82802 0.02 0.508
3:56 pm 15:56 Cloudy with Light Rain 55 12.8 55 12.8 100 100 SE 12 19 30.03 1017 5 8.0467 0.09 2.286
4:29 pm 16:29 Cloudy with Rain 55 13 55 13 100 100 SE 16 26 29.99 1016 4 6.43736 0.07 1.778
4:38 pm 16:38 Cloudy with Rain 57 14 57 14 100 100 SE 15 24 29.97 1015 3 4.82802 0.07 1.778
4:56 pm 16:56 Cloudy with Rain 57 13.9 57 13.9 100 100 SSE 10 17 30 1016 4 6.43736 0.07 1.778
5:08 pm 17:08 Cloudy with Rain 57 14 57 14 100 100 SSE 14 22 29.98 1015 3 4.82802 0 0
5:27 pm 17:27 Cloudy with Light Rain 57 14 57 14 100 100 VRB 7 11 29.98 1015 9 14.48406 0 0
5:34 pm 17:34 Cloudy with Light Rain 57 14 57 14 100 100 SSW 5 7 29.98 1015 10 16.0934 0 0
5:52 pm 17:52 Cloudy with Light Rain 59 15 59 15 100 100 SSE 9 15 29.95 1014 10 16.0934 0 0
5:56 pm 17:56 Cloudy with Light Rain 60 15.6 60 15.6 100 100 SSE 10 17 29.97 1015 10 16.0934 0 0
6:10 pm 18:10 Cloudy with Rain 61 16 61 16 100 100 S 10 17 29.95 1014 10 16.0934 0 0
6:26 pm 18:26 Cloudy with Light Rain 61 16 61 16 100 100 S 9 15 29.94 1014 10 16.0934 0 0
6:36 pm 18:36 Cloudy 61 16 61 16 100 100 S 13 20 29.94 1014 10 16.0934 0 0
6:56 pm 18:56 Cloudy with Light Rain 61 16.1 61 16.1 100 100 S 14 22 29.94 1014 10 16.0934 0 0
7:53 pm 19:53 Cloudy 63 17 63 17 100 100 SSW 16 26 29.92 1013 10 16.0934 3.51 89.154
7:56 pm 19:56 Cloudy 63 17.2 63 17.2 100 100 SSW 13 20 29.95 1014 10 16.0934 3.82 97.028
8:03 pm 20:03 Cloudy 63 17 63 17 100 100 SSW 14 22 29.92 1013 10 16.0934 0.82 20.828
8:32 pm 20:32 Cloudy with Rain 63 17 63 17 100 100 S 12 19 29.92 1013 8 12.87472 1.38 35.052
8:42 pm 20:42 Cloudy with Light Rain 63 17 63 17 100 100 SSW 13 20 29.92 1013 10 16.0934 1.38 35.052
8:56 pm 20:56 Cloudy with Rain 63 17.2 63 17.2 100 100 SSW 14 22 29.94 1014 8 12.87472 1.4 35.56
9:04 pm 21:04 Cloudy with Rain 63 17 63 17 100 100 SSW 15 24 29.91 1013 8 12.87472 0.01 0.254
9:56 pm 21:56 Cloudy 64 17.8 64 17.8 100 100 SSW 14 22 29.93 1013 10 16.0934 0.02 0.508
10:24 pm 22:24 Cloudy 64 18 64 18 100 100 SSW 18 30 29.89 1012 10 16.0934 0 0
10:56 pm 22:56 Cloudy 64 17.8 64 17.8 100 100 SSW 21 33 29.91 1013 10 16.0934 0 0
11:12 pm 23:12 Cloudy 64 18 64 18 100 100 SW 22 35 29.89 1012 10 16.0934 0.02 0.508
11:56 pm 23:56 Mostly Clear 65 18.3 65 18.3 100 100 SW 22 35 29.94 1014 10 16.0934 0.04 1.016

Powered by AerisWeather